Find Kosmos-828

NORAD ID: 8892 Int'l Des: 1976-054 Owner: GUKOSR Country: SU operational
LEOCIRCULAR

Current View

Loading 3D Globe...

About Kosmos-828

Description loading...

Upcoming Passes

Passes for default location (London). Set your location on the main map for personalized predictions.

Altitude History

Loading altitude history...

Two-Line Element Set

1 8892U 76054D 26150.73912632 -.00000019 00000-0 -22183-4 0 9998
2 8892 74.0010 263.0896 0035673 68.1751 99.9159 12.50987767281316
Epoch: May 30, 2026 • Age: 9 hours

Current Status

Altitude 1448.4 km
Velocity 7.16 km/s
Sub-Earth Point 72.08°N, 87.6°E
Type other

Most Searched